This is the latest recevied weather packets stored in our database for station/object VK3HUG-13. If no packets are shown the sender has not sent any weather packets the latest 10 day(s).
| Time | Temp. | Humidity | Pressure | Rain* | Wind** | Luminosity | Snow |
|---|---|---|---|---|---|---|---|
| 1787582707 | 10.56° C | 92% | 1016.5 hPa | 3.05 mm | - | - | - |
| 1787580906 | 10.56° C | 91% | 1017.5 hPa | 2.29 mm | - | - | - |
| 1787580007 | 10.56° C | 90% | 1017.5 hPa | 1.52 mm | - | - | - |
| 1787579106 | 10.56° C | 90% | 1017.5 hPa | 0.76 mm | - | - | - |
| 1787578207 | 10.56° C | 88% | 1017.5 hPa | 0.76 mm | - | - | - |
| 1787577308 | 11.11° C | 87% | 1017.4 hPa | 0 mm | - | - | - |
| 1787576407 | 11.67° C | 85% | 1017.4 hPa | 0 mm | - | - | - |
| 1787575506 | 11.67° C | 84% | 1017.3 hPa | 0 mm | - | - | - |
| 1787574607 | 11.67° C | 86% | 1018.4 hPa | 0 mm | - | - | - |
| 1787573707 | 11.67° C | 89% | 1018.4 hPa | 0 mm | - | - | - |
| 1787572807 | 10.56° C | 91% | 1018.6 hPa | 0 mm | - | - | - |
| 1787571906 | 10° C | 90% | 1018.6 hPa | 0 mm | - | - | - |
| 1787571007 | 10° C | 89% | 1018.6 hPa | 0 mm | - | - | - |
| 1787570106 | 10° C | 88% | 1018.6 hPa | 0 mm | - | - | - |
| 1787569207 | 10.56° C | 88% | 1018.6 hPa | 0 mm | - | - | - |
| 1787568307 | 10.56° C | 88% | 1018.6 hPa | 0 mm | - | - | - |
| 1787567407 | 10.56° C | 87% | 1018.5 hPa | 0 mm | - | - | - |
| 1787566506 | 10.56° C | 87% | 1018.5 hPa | 0 mm | - | - | - |
| 1787565607 | 10.56° C | 86% | 1018.6 hPa | 0 mm | - | - | - |
| 1787564707 | 11.11° C | 82% | 1018.5 hPa | 0 mm | - | - | - |
| 1787563808 | 11.11° C | 82% | 1018.5 hPa | 0 mm | - | - | - |
| 1787562908 | 11.11° C | 82% | 1018.5 hPa | 0 mm | - | - | - |
| 1787562006 | 11.11° C | 82% | 1018.5 hPa | 0 mm | - | - | - |
| 1787561107 | 11.11° C | 82% | 1018.5 hPa | 0 mm | - | - | - |
| 1787560206 | 11.67° C | 80% | 1018.4 hPa | 0 mm | - | - | - |
* Rain latest hour (hover to see other rain measurements)
** Current wind speed in m/s (hover to see current wind gust speed)